GW2804 Weather Reports


Display with metric or nautical units.
time (UTC)temp
F
wind
direction
speed
MPH
gust
MPH
rain 1hr
in
rain 24hr
in
rain mn
in
humidity
%
barometer
mb
20260504230058 78 188 8.0 21.0 0.00 0.00 0.00 36 999.0
20260504224554 80 267 7.0 15.0 0.00 0.00 0.00 33 999.0
20260504223052 81 267 11.0 23.0 0.00 0.00 0.00 32 998.9
20260504221552 82 299 9.0 24.0 0.00 0.00 0.00 31 998.8
20260504220054 82 211 8.0 16.0 0.00 0.00 0.00 31 999.0
20260504214555 83 186 7.0 20.0 0.00 0.00 0.00 30 999.0
20260504213052 82 248 8.0 20.0 0.00 0.00 0.00 32 999.1
20260504211552 83 240 8.0 20.0 0.00 0.00 0.00 31 999.0
20260504210107 82 155 6.0 21.0 0.00 0.00 0.00 31 999.2
20260504204559 82 186 9.0 19.0 0.00 0.00 0.00 31 999.4
20260504201554 82 209 6.0 16.0 0.00 0.00 0.00 29 1000.1
20260504200053 82 157 6.0 15.0 0.00 0.00 0.00 31 1000.3
20260504194550 82 234 8.0 16.0 0.00 0.00 0.00 32 1000.5
20260504193050 81 212 8.0 17.0 0.00 0.00 0.00 33 1000.5
20260504191551 81 191 9.0 16.0 0.00 0.00 0.00 34 1000.5
20260504190127 81 189 7.0 13.0 0.00 0.00 0.00 35 1000.5
20260504184549 81 244 8.0 13.0 0.00 0.00 0.00 35 1000.7
20260504183051 80 221 8.0 15.0 0.00 0.00 0.00 35 1000.7
20260504181550 80 302 5.0 19.0 0.00 0.00 0.00 38 1000.8
20260504173052 78 254 8.0 18.0 0.00 0.00 0.00 39 1000.9
20260504171557 78 292 6.0 14.0 0.00 0.00 0.00 41 1000.8
20260504081601 53 178 2.0 5.0 0.00 0.00 0.00 64 1005.2
20260504050112 57 220 0.0 3.0 0.00 0.00 0.00 59 1006.8
20260504044552 57 217 1.0 4.0 0.00 0.00 0.00 58 1007.1
20260504043106 58 207 2.0 5.0 0.00 0.00 0.00 57 1007.1
20260504041550 59 205 2.0 5.0 0.00 0.00 0.00 56 1007.3
20260504040058 59 196 2.0 7.0 0.00 0.00 0.00 55 1007.4
20260504034552 60 209 2.0 5.0 0.00 0.00 0.00 54 1007.6
20260504033055 60 192 2.0 5.0 0.00 0.00 0.00 54 1007.7
20260504031558 60 201 2.0 6.0 0.00 0.00 0.00 53 1007.7
20260504030054 61 200 2.0 5.0 0.00 0.00 0.00 52 1007.8
20260504024550 61 198 2.0 5.0 0.00 0.00 0.00 51 1007.6
20260504023052 62 188 2.0 5.0 0.00 0.00 0.00 48 1007.5
20260504021550 63 202 3.0 6.0 0.00 0.00 0.00 48 1007.5
20260504020047 63 223 2.0 4.0 0.00 0.00 0.00 48 1007.4
20260504014558 64 234 2.0 6.0 0.00 0.00 0.00 47 1007.4
20260504013100 65 221 2.0 4.0 0.00 0.00 0.00 46 1007.4
20260504011549 66 227 2.0 5.0 0.00 0.00 0.00 44 1007.4
20260504010110 67 214 2.0 7.0 0.00 0.00 0.00 42 1007.4
20260504004553 69 193 4.0 8.0 0.00 0.00 0.00 39 1007.3
20260504003050 69 240 3.0 9.0 0.00 0.00 0.00 37 1007.4
20260504001600 70 224 5.0 10.0 0.00 0.00 0.00 34 1007.3
20260504000049 71 231 5.0 11.0 0.00 0.00 0.00 34 1007.3
20260503234551 71 218 6.0 11.0 0.00 0.00 0.00 35 1007.3
20260503233102 71 252 6.0 11.0 0.00 0.00 0.00 35 1007.3